星链-33912 (STARLINK-33912)

导读

STARLINK-33912是美国SpaceX星链互联网星座的一颗卫星,于2025年5月23日发射升空。星链项目旨在为全球提供高速低延迟卫星互联网服务,该卫星是星链规模持续扩张过程中新增的组网卫星,加入低轨星座后,将进一步补全星链全球覆盖能力,提升星座运行服务的稳定性与容量,为更多偏远地区及传统网络覆盖不足区域提供网络连接服务。

Basic Information
目录编号:
64107
目录名称:
STARLINK-33912
国际标识:
2025-110M
轨道中心:
EARTH
卫星名称:
星链-33912
卫星全名:
星链-33912 (STARLINK-33912)
卫星状态:
在轨 (已飞行469 天)
发射日期:
2025-05-23 UTC
国别 :
美国 (US)
星等 :
--
Orbit Information
数据来源 国际轨道数据
星历时间: 2026-09-04T02:13:28+0800
9小时前
查看轨道信息
半长轴: 6848.858km
偏心率: 0.0001306
轨道倾角: 53.159°
近地点辐角 85.256°
升交点赤经 278.377°
平近点角 274.859°
近地点: 469.826km
远地点: 471.616km
周期: 94.013分钟
每日圈数: 15.317067
Detailed Information
固有亮度:
5
最大亮度:
2.5
卫星平台:
Starlink V1.0
覆盖范围:
全球
运营商:
太空探索技术公司
运营商所在国:
美国
制造商(研发单位):
太空探索技术公司
制造商所在国:
美国
使用方式:
暂无
Satellite Introduction
Starlink 计划是 SpaceX 推出的全球卫星互联网项目,通过发射低轨道卫星,为全球尤其是偏远地区提供高速、低延迟的互联网服务。自 2019 年起,Starlink 已部署数千颗卫星,旨在缩小全球数字鸿沟,推动互联网普及。该项目还为军事、航空等行业提供通信支持,带来广泛经济效益。
2D Orbit Map
3D Orbit Map
Orbit Altitude Analysis Chart
Orbit Inclination Analysis Chart
Orbit Comprehensive Analysis Chart
View Comprehensive Chart
Conjunction Data List
Event ID Objects TCA Miss Dist (km) Collision Risk Probability Collision Risk Index (CRI) Action
CDM_260905-005004-780406-410721
2026-09-05T
00:50:27+0000
1.165 km
极远距离
1.372636E-5 中风险 0.58
CDM_260904-161304-780406-410721
2026-09-04T
16:13:44+0000
1.670 km
极远距离
4.14151E-6 低风险 0.47